| time (UTC) | temp C | wind direction | speed KPH | gust KPH | rain 1hr cm | rain 24hr cm | rain mn cm | humidity % | barometer mb |
| 20260506200517 | 15 | 284 | 4.8 | 11.3 | 0.00 | 1.68 | 1.27 | 54 | 1011.6 |
| 20260506195516 | 15 | 252 | 4.8 | 9.7 | 0.00 | 1.68 | 1.27 | 56 | 1011.5 |
| 20260506194536 | 15 | 267 | 4.8 | 14.5 | 0.00 | 1.68 | 1.27 | 58 | 1011.3 |
| 20260506193536 | 15 | 271 | 4.8 | 9.7 | 0.00 | 1.68 | 1.27 | 59 | 1011.6 |
| 20260506192517 | 14 | 269 | 3.2 | 12.9 | 0.00 | 1.68 | 1.27 | 60 | 1011.7 |
| 20260506191516 | 14 | 284 | 4.8 | 14.5 | 0.00 | 1.68 | 1.27 | 59 | 1011.8 |
| 20260506190516 | 14 | 280 | 4.8 | 12.9 | 0.00 | 1.68 | 1.27 | 61 | 1011.8 |
| 20260506185516 | 14 | 282 | 3.2 | 11.3 | 0.00 | 1.68 | 1.27 | 59 | 1011.6 |
| 20260506184517 | 13 | 281 | 3.2 | 9.7 | 0.00 | 1.68 | 1.27 | 60 | 1011.7 |
| 20260506183516 | 13 | 283 | 3.2 | 9.7 | 0.00 | 1.68 | 1.27 | 61 | 1011.9 |
| 20260506182516 | 13 | 280 | 3.2 | 11.3 | 0.00 | 1.68 | 1.27 | 60 | 1011.7 |
| 20260506181516 | 13 | 282 | 4.8 | 9.7 | 0.00 | 1.68 | 1.27 | 60 | 1011.6 |
| 20260506180516 | 14 | 281 | 6.4 | 11.3 | 0.00 | 1.68 | 1.27 | 60 | 1011.6 |
| 20260506175516 | 14 | 279 | 4.8 | 12.9 | 0.00 | 1.68 | 1.27 | 61 | 1011.7 |
| 20260506174516 | 13 | 273 | 1.6 | 11.3 | 0.00 | 1.68 | 1.27 | 64 | 1011.8 |
| 20260506173516 | 13 | 288 | 6.4 | 12.9 | 0.00 | 1.68 | 1.27 | 64 | 1011.8 |
| 20260506172516 | 13 | 267 | 4.8 | 16.1 | 0.00 | 1.68 | 1.27 | 66 | 1012.0 |
| 20260506171536 | 13 | 278 | 4.8 | 11.3 | 0.00 | 1.68 | 1.27 | 69 | 1011.8 |
| 20260506170516 | 13 | 268 | 3.2 | 9.7 | 0.00 | 1.68 | 1.27 | 72 | 1011.5 |
| 20260506165516 | 13 | 285 | 3.2 | 9.7 | 0.00 | 1.68 | 1.27 | 74 | 1011.7 |
| 20260506164516 | 12 | 291 | 3.2 | 12.9 | 0.00 | 1.68 | 1.27 | 73 | 1011.7 |
| 20260506163516 | 12 | 270 | 3.2 | 6.4 | 0.00 | 1.68 | 1.27 | 75 | 1011.8 |
| 20260506162516 | 12 | 285 | 1.6 | 8.0 | 0.00 | 1.68 | 1.27 | 75 | 1011.5 |
| 20260506161516 | 12 | 271 | 1.6 | 9.7 | 0.00 | 1.68 | 1.27 | 77 | 1011.4 |
| 20260506160517 | 11 | 276 | 3.2 | 11.3 | 0.00 | 1.68 | 1.27 | 77 | 1011.2 |
| 20260506155516 | 11 | 275 | 3.2 | 11.3 | 0.00 | 1.68 | 1.27 | 82 | 1011.2 |
| 20260506154516 | 11 | 273 | 4.8 | 9.7 | 0.00 | 1.68 | 1.27 | 81 | 1011.1 |
| 20260506153516 | 11 | 276 | 3.2 | 11.3 | 0.00 | 1.68 | 1.27 | 83 | 1010.9 |
| 20260506152516 | 10 | 278 | 3.2 | 6.4 | 0.00 | 1.68 | 1.27 | 85 | 1010.8 |
| 20260506151516 | 10 | 277 | 3.2 | 9.7 | 0.00 | 1.68 | 1.27 | 85 | 1010.8 |
| 20260506150516 | 10 | 282 | 4.8 | 11.3 | 0.00 | 1.68 | 1.27 | 85 | 1010.7 |
| 20260506145516 | 10 | 276 | 3.2 | 8.0 | 0.00 | 1.68 | 1.27 | 87 | 1010.6 |
| 20260506144516 | 10 | 275 | 3.2 | 11.3 | 0.00 | 1.68 | 1.27 | 88 | 1010.4 |
| 20260506143537 | 10 | 271 | 3.2 | 12.9 | 0.00 | 1.68 | 1.27 | 88 | 1010.2 |
| 20260506142516 | 10 | 282 | 3.2 | 9.7 | 0.00 | 1.68 | 1.27 | 90 | 1010.0 |
| 20260506141536 | 10 | 280 | 1.6 | 9.7 | 0.00 | 1.68 | 1.27 | 90 | 1009.8 |
| 20260506140516 | 10 | 278 | 1.6 | 8.0 | 0.00 | 1.68 | 1.27 | 90 | 1009.7 |
| 20260506135556 | 9 | 282 | 1.6 | 4.8 | 0.00 | 1.68 | 1.27 | 91 | 1009.5 |
| 20260506134515 | 9 | 278 | 3.2 | 9.7 | 0.00 | 1.68 | 1.27 | 91 | 1009.4 |
| 20260506133517 | 9 | 133 | 0.0 | 6.4 | 0.03 | 1.68 | 1.27 | 91 | 1009.4 |
| 20260506132516 | 9 | 265 | 1.6 | 6.4 | 0.03 | 1.68 | 1.27 | 91 | 1009.4 |
| 20260506131516 | 8 | 275 | 1.6 | 6.4 | 0.03 | 1.68 | 1.27 | 91 | 1009.3 |
| 20260506130516 | 8 | 271 | 1.6 | 4.8 | 0.03 | 1.68 | 1.27 | 91 | 1009.0 |
| 20260506125556 | 8 | 279 | 0.0 | 4.8 | 0.03 | 1.68 | 1.27 | 91 | 1009.1 |
| 20260506124516 | 8 | 277 | 3.2 | 6.4 | 0.03 | 1.68 | 1.27 | 91 | 1009.1 |
| 20260506123516 | 8 | 274 | 1.6 | 3.2 | 0.03 | 1.65 | 1.24 | 91 | 1009.0 |
| 20260506122516 | 8 | 227 | 0.0 | 4.8 | 0.03 | 1.65 | 1.24 | 91 | 1009.0 |
| 20260506121515 | 8 | 276 | 1.6 | 3.2 | 0.05 | 1.65 | 1.24 | 91 | 1008.9 |
| 20260506120516 | 8 | 277 | 0.0 | 3.2 | 0.05 | 1.65 | 1.24 | 91 | 1008.2 |
| 20260506115516 | 8 | 279 | 1.6 | 6.4 | 0.05 | 1.65 | 1.24 | 91 | 1008.3 |
| 20260506114516 | 8 | 280 | 3.2 | 6.4 | 0.05 | 1.65 | 1.24 | 91 | 1008.6 |
| 20260506113516 | 8 | 261 | 0.0 | 1.6 | 0.03 | 1.63 | 1.22 | 91 | 1008.2 |
| 20260506112516 | 8 | 264 | 1.6 | 4.8 | 0.03 | 1.63 | 1.22 | 91 | 1008.7 |
| 20260506111515 | 8 | 279 | 1.6 | 4.8 | 0.00 | 1.60 | 1.19 | 91 | 1008.8 |
| 20260506110535 | 8 | 0.0 | 6.4 | 0.00 | 1.60 | 1.19 | 91 | 1008.3 | |
| 20260506105516 | 8 | 277 | 1.6 | 4.8 | 0.00 | 1.60 | 1.19 | 91 | 1007.9 |
| 20260506104516 | 8 | 265 | 0.0 | 6.4 | 0.03 | 1.60 | 1.19 | 91 | 1007.2 |
| 20260506103536 | 8 | 225 | 0.0 | 4.8 | 0.05 | 1.60 | 1.19 | 91 | 1006.9 |
| 20260506102516 | 8 | 266 | 0.0 | 4.8 | 0.08 | 1.60 | 1.19 | 91 | 1007.2 |
| 20260506101516 | 8 | 244 | 0.0 | 4.8 | 0.13 | 1.60 | 1.19 | 91 | 1007.4 |
| 20260506100517 | 8 | 275 | 1.6 | 9.7 | 0.18 | 1.60 | 1.19 | 90 | 1007.3 |
| 20260506095516 | 8 | 277 | 3.2 | 12.9 | 0.23 | 1.60 | 1.19 | 90 | 1007.3 |
| 20260506094516 | 8 | 285 | 1.6 | 6.4 | 0.20 | 1.57 | 1.17 | 90 | 1007.8 |
| 20260506093516 | 8 | 277 | 3.2 | 8.0 | 0.18 | 1.55 | 1.14 | 90 | 1007.6 |
| 20260506092536 | 8 | 276 | 3.2 | 8.0 | 0.18 | 1.52 | 1.12 | 90 | 1007.4 |
| 20260506091516 | 9 | 283 | 4.8 | 17.7 | 0.18 | 1.47 | 1.07 | 90 | 1007.5 |
| 20260506090516 | 10 | 282 | 4.8 | 14.5 | 0.15 | 1.42 | 1.02 | 90 | 1007.5 |
| 20260506085516 | 10 | 276 | 3.2 | 9.7 | 0.18 | 1.37 | 0.97 | 91 | 1007.0 |
| 20260506084516 | 10 | 282 | 3.2 | 6.4 | 0.25 | 1.37 | 0.97 | 91 | 1006.8 |
| 20260506083536 | 10 | 261 | 1.6 | 3.2 | 0.33 | 1.37 | 0.97 | 91 | 1006.6 |
| 20260506082515 | 10 | 279 | 3.2 | 8.0 | 0.36 | 1.35 | 0.94 | 91 | 1006.5 |
| 20260506081516 | 10 | 280 | 3.2 | 8.0 | 0.33 | 1.30 | 0.89 | 90 | 1006.5 |
| 20260506080516 | 10 | 277 | 3.2 | 8.0 | 0.33 | 1.27 | 0.86 | 90 | 1006.4 |
| 20260506073515 | 11 | 273 | 0.0 | 3.2 | 0.23 | 1.04 | 0.64 | 90 | 1006.3 |
| 20260506072515 | 11 | 272 | 0.0 | 3.2 | 0.18 | 0.99 | 0.58 | 90 | 1006.1 |
| 20260506071515 | 11 | 261 | 1.6 | 4.8 | 0.20 | 0.97 | 0.56 | 90 | 1006.1 |
| 20260506070515 | 11 | 268 | 0.0 | 4.8 | 0.23 | 0.94 | 0.53 | 90 | 1006.3 |
| 20260506062515 | 11 | 232 | 1.6 | 8.0 | 0.13 | 0.81 | 0.41 | 90 | 1006.5 |
| 20260506061515 | 12 | 220 | 1.6 | 6.4 | 0.08 | 0.76 | 0.36 | 89 | 1006.7 |
| 20260506060516 | 13 | 284 | 1.6 | 6.4 | 0.05 | 0.71 | 0.30 | 89 | 1006.7 |
| 20260506050516 | 15 | 0.0 | 0.0 | 0.25 | 0.66 | 0.25 | 90 | 1007.6 | |
| 20260506044516 | 15 | 205 | 0.0 | 1.6 | 0.15 | 0.53 | 0.13 | 90 | 1007.9 |
| 20260506043517 | 15 | 0.0 | 0.0 | 0.18 | 0.51 | 0.10 | 90 | 1007.8 | |
| 20260506042515 | 15 | 91 | 0.0 | 1.6 | 0.15 | 0.46 | 0.05 | 90 | 1007.9 |
| 20260506041535 | 15 | 0.0 | 1.6 | 0.13 | 0.43 | 0.03 | 90 | 1008.0 | |
| 20260506040536 | 15 | 0.0 | 0.0 | 0.13 | 0.41 | 0.00 | 90 | 1007.9 | |
| 20260506035517 | 15 | 0.0 | 0.0 | 0.13 | 0.41 | 0.41 | 90 | 1007.9 | |
| 20260506034516 | 15 | 91 | 0.0 | 3.2 | 0.13 | 0.38 | 0.38 | 90 | 1008.1 |
| 20260506033516 | 15 | 0.0 | 0.0 | 0.08 | 0.33 | 0.33 | 90 | 1008.1 | |
| 20260506032516 | 15 | 0.0 | 0.0 | 0.08 | 0.30 | 0.30 | 90 | 1008.1 | |
| 20260506031517 | 15 | 0.0 | 0.0 | 0.08 | 0.30 | 0.30 | 90 | 1008.2 | |
| 20260506030517 | 15 | 125 | 0.0 | 3.2 | 0.05 | 0.28 | 0.28 | 90 | 1008.2 |
| 20260506025537 | 15 | 0.0 | 0.0 | 0.05 | 0.28 | 0.28 | 89 | 1008.2 | |
| 20260506024517 | 15 | 114 | 0.0 | 1.6 | 0.05 | 0.25 | 0.25 | 89 | 1008.3 |
| 20260506023517 | 15 | 114 | 0.0 | 1.6 | 0.05 | 0.25 | 0.25 | 89 | 1008.5 |
| 20260506022516 | 15 | 0.0 | 0.0 | 0.03 | 0.23 | 0.23 | 89 | 1008.5 | |
| 20260506021517 | 15 | 0.0 | 0.0 | 0.03 | 0.23 | 0.23 | 89 | 1008.3 | |
| 20260506020516 | 15 | 0.0 | 0.0 | 0.03 | 0.23 | 0.23 | 89 | 1008.2 | |
| 20260506015516 | 15 | 0.0 | 0.0 | 0.03 | 0.23 | 0.23 | 89 | 1008.1 | |
| 20260506014537 | 15 | 114 | 0.0 | 1.6 | 0.03 | 0.20 | 0.20 | 89 | 1007.9 |
| 20260506013516 | 15 | 0.0 | 1.6 | 0.03 | 0.20 | 0.20 | 89 | 1007.7 | |
| 20260506012517 | 15 | 0.0 | 0.0 | 0.08 | 0.20 | 0.20 | 89 | 1007.8 | |
| 20260506011557 | 15 | 0.0 | 1.6 | 0.13 | 0.20 | 0.20 | 89 | 1007.7 | |
| 20260506010517 | 15 | 0.0 | 0.0 | 0.13 | 0.20 | 0.20 | 88 | 1007.8 | |
| 20260506005516 | 15 | 0.0 | 1.6 | 0.13 | 0.20 | 0.20 | 88 | 1007.9 | |
| 20260506004516 | 15 | 245 | 0.0 | 4.8 | 0.15 | 0.18 | 0.18 | 88 | 1008.2 |
| 20260506003537 | 15 | 170 | 1.6 | 4.8 | 0.18 | 0.18 | 0.18 | 88 | 1008.1 |
| 20260506002517 | 15 | 283 | 0.0 | 1.6 | 0.13 | 0.13 | 0.13 | 87 | 1007.8 |
| 20260506001516 | 15 | 0.0 | 4.8 | 0.08 | 0.08 | 0.08 | 87 | 1007.8 | |
| 20260506000537 | 16 | 270 | 1.6 | 9.7 | 0.08 | 0.08 | 0.08 | 86 | 1007.8 |
| 20260505235516 | 16 | 300 | 4.8 | 12.9 | 0.08 | 0.08 | 0.08 | 83 | 1007.9 |
| 20260505234517 | 18 | 297 | 8.0 | 17.7 | 0.03 | 0.03 | 0.03 | 75 | 1008.1 |
| 20260505233516 | 21 | 299 | 9.7 | 22.5 | 0.00 | 0.00 | 0.00 | 60 | 1007.8 |
| 20260505232516 | 21 | 239 | 3.2 | 9.7 | 0.00 | 0.00 | 0.00 | 59 | 1007.2 |
| 20260505231517 | 21 | 181 | 1.6 | 8.0 | 0.00 | 0.00 | 0.00 | 58 | 1007.2 |
| 20260505230516 | 21 | 191 | 4.8 | 12.9 | 0.00 | 0.00 | 0.00 | 58 | 1007.3 |
| 20260505225516 | 21 | 195 | 1.6 | 9.7 | 0.00 | 0.00 | 0.00 | 59 | 1007.2 |
| 20260505224537 | 21 | 170 | 1.6 | 11.3 | 0.00 | 0.00 | 0.00 | 58 | 1007.4 |
| 20260505223537 | 21 | 237 | 1.6 | 12.9 | 0.00 | 0.00 | 0.00 | 58 | 1007.4 |
| 20260505222516 | 21 | 213 | 1.6 | 9.7 | 0.00 | 0.00 | 0.00 | 58 | 1007.3 |
| 20260505221518 | 21 | 210 | 1.6 | 9.7 | 0.00 | 0.00 | 0.00 | 59 | 1007.4 |
| 20260505220516 | 21 | 226 | 3.2 | 9.7 | 0.00 | 0.00 | 0.00 | 58 | 1007.4 |
| 20260505215517 | 21 | 129 | 1.6 | 9.7 | 0.00 | 0.00 | 0.00 | 58 | 1007.4 |
| 20260505214516 | 21 | 247 | 4.8 | 11.3 | 0.00 | 0.00 | 0.00 | 58 | 1007.5 |
| 20260505213517 | 21 | 263 | 3.2 | 12.9 | 0.00 | 0.00 | 0.00 | 58 | 1007.5 |
| 20260505212516 | 21 | 246 | 4.8 | 17.7 | 0.00 | 0.00 | 0.00 | 58 | 1007.5 |
| 20260505211516 | 21 | 228 | 3.2 | 12.9 | 0.00 | 0.00 | 0.00 | 58 | 1007.6 |
| 20260505210516 | 21 | 187 | 6.4 | 20.9 | 0.00 | 0.00 | 0.00 | 58 | 1007.6 |
| 20260505205516 | 21 | 217 | 6.4 | 14.5 | 0.00 | 0.00 | 0.00 | 58 | 1007.8 |
| 20260505204517 | 21 | 234 | 4.8 | 19.3 | 0.00 | 0.00 | 0.00 | 58 | 1007.9 |
| 20260505203516 | 21 | 206 | 4.8 | 17.7 | 0.00 | 0.00 | 0.00 | 58 | 1008.0 |
| 20260505202516 | 21 | 243 | 3.2 | 11.3 | 0.00 | 0.00 | 0.00 | 59 | 1008.0 |
| 20260505201516 | 21 | 144 | 4.8 | 17.7 | 0.00 | 0.00 | 0.00 | 60 | 1008.0 |